TimeCST,TemperatureF,Dew PointF,Humidity,Sea Level PressureIn,VisibilityMPH,Wind Direction,Wind SpeedMPH,Gust SpeedMPH,PrecipitationIn,Events,Conditions,WindDirDegrees,DateUTC
12:54 AM,3.9,-4.0,70,30.17,10.0,NNW,12.7,-,N/A,,Overcast,340,2014-01-23 06:54:00
1:01 AM,3.2,-4.0,72,30.08,10.0,NNW,11.5,-,N/A,,Overcast,340,2014-01-23 07:01:00
1:54 AM,1.9,-4.0,76,30.22,10.0,North,9.2,-,N/A,,Overcast,350,2014-01-23 07:54:00
2:01 AM,1.4,-5.8,72,30.13,10.0,North,8.1,-,N/A,,Overcast,360,2014-01-23 08:01:00
2:40 AM,3.2,-0.4,85,30.15,2.5,NNW,6.9,-,0.00,Snow,Light Snow,340,2014-01-23 08:40:00
2:54 AM,5.0,-0.0,80,30.25,2.0,NNW,6.9,-,0.00,Snow,Light Snow,340,2014-01-23 08:54:00
3:04 AM,5.0,-0.4,78,30.16,1.8,NNW,6.9,-,0.00,Snow,Light Snow,330,2014-01-23 09:04:00
3:54 AM,5.0,1.0,84,30.29,1.5,NNW,4.6,-,0.00,Snow,Light Snow,340,2014-01-23 09:54:00
4:54 AM,6.1,1.0,80,30.32,2.0,NNW,12.7,-,0.00,Snow,Light Snow,330,2014-01-23 10:54:00
5:11 AM,6.8,-0.4,72,30.24,4.0,NNW,13.8,-,0.00,Snow,Light Snow,330,2014-01-23 11:11:00
5:46 AM,3.2,-2.2,78,30.27,9.0,NNW,11.5,-,0.00,,Overcast,330,2014-01-23 11:46:00
5:54 AM,3.9,-2.0,76,30.38,7.0,NNW,12.7,-,0.00,,Overcast,330,2014-01-23 11:54:00
6:54 AM,1.0,-6.0,72,30.43,10.0,NNW,12.7,-,0.00,,Partly Cloudy,330,2014-01-23 12:54:00
7:54 AM,-0.9,-8.0,72,30.46,10.0,NW,11.5,-,N/A,,Scattered Clouds,320,2014-01-23 13:54:00
8:54 AM,-0.9,-9.0,69,30.49,10.0,NNW,16.1,24.2,N/A,,Clear,330,2014-01-23 14:54:00
9:54 AM,1.0,-8.0,66,30.51,10.0,NNW,11.5,-,N/A,,Clear,340,2014-01-23 15:54:00
10:54 AM,1.9,-8.0,63,30.52,10.0,NNW,15.0,-,N/A,,Clear,330,2014-01-23 16:54:00
11:54 AM,3.0,-9.0,57,30.51,10.0,NW,12.7,-,N/A,,Clear,320,2014-01-23 17:54:00
12:54 PM,3.9,-8.0,58,30.50,10.0,NW,12.7,-,N/A,,Scattered Clouds,320,2014-01-23 18:54:00
1:54 PM,3.0,-9.0,57,30.50,10.0,NW,11.5,-,N/A,,Partly Cloudy,320,2014-01-23 19:54:00
2:54 PM,5.0,-9.0,52,30.48,10.0,NNW,11.5,-,0.00,,Overcast,340,2014-01-23 20:54:00
3:54 PM,3.9,-9.9,53,30.48,10.0,NNW,5.8,-,N/A,,Partly Cloudy,330,2014-01-23 21:54:00
4:54 PM,1.0,-9.9,60,30.48,10.0,WNW,4.6,-,N/A,,Clear,300,2014-01-23 22:54:00
5:54 PM,-8.0,-14.1,75,30.46,10.0,Calm,Calm,-,N/A,,Clear,0,2014-01-23 23:54:00
6:54 PM,-5.1,-13.0,69,30.45,10.0,WSW,3.5,-,N/A,,Clear,240,2014-01-24 00:54:00
7:54 PM,-6.0,-14.1,68,30.43,10.0,Calm,Calm,-,N/A,,Clear,0,2014-01-24 01:54:00
8:54 PM,-5.1,-14.1,65,30.38,10.0,WSW,4.6,-,N/A,,Clear,240,2014-01-24 02:54:00
9:54 PM,-6.0,-15.0,65,30.34,10.0,Calm,Calm,-,N/A,,Clear,0,2014-01-24 03:54:00
10:54 PM,-6.0,-15.0,65,30.29,10.0,SW,4.6,-,N/A,,Clear,230,2014-01-24 04:54:00
11:54 PM,-6.0,-15.0,65,30.25,10.0,SW,6.9,-,N/A,,Clear,220,2014-01-24 05:54:00